Location: Kiikka
(61.3667°N, 22.7167°E)
Time: 23:40:25
(UTC+00:00)

Daily predictions for brighter satellites

Satellite Brightness Start Highest point End
(mag) Time Altitude Azimuth Time Altitude Azimuth Time Altitude Azimuth
NOSS 3-1 (A) 3.6 17:09:43 10° SW 17:15:25 58° SE 17:22:14 10° ENE
Cosmos 1802 Rocket 4.4 17:14:26 10° SSW 17:20:35 70° WNW 17:26:44 10° NNE
MOS 1 Rocket 3.7 17:16:50 10° NNE 17:21:10 38° E 17:25:18 10° SSE
USA 186 1.9 17:20:13 10° SSE 17:23:22 59° ENE 17:26:37 10° N
Cosmos 1937 Rocket 4.0 17:19:24 10° S 17:24:09 36° ESE 17:28:53 10° NE
COSMOS 2406 3.8 17:18:46 10° NW 17:24:17 47° NNE 17:29:46 10° ESE
Meteor 1-24 Rocket 4.5 17:21:22 10° N 17:26:16 33° NE 17:31:15 10° ESE
Cosmos 1842 4.2 17:24:09 10° NNW 17:27:56 51° W 17:31:42 10° S
Cosmos 2297 Rocket 2.7 17:23:17 10° WSW 17:28:56 64° NW 17:34:37 10° NE
Cosmos 1544 3.1 17:26:12 10° SSW 17:29:52 87° ESE 17:33:33 10° NNE
Cosmos 1674 3.4 17:26:39 10° N 17:30:17 37° ENE 17:33:54 10° SE
In-Cosmos 22 4.1 17:25:04 10° NNW 17:30:23 73° ENE 17:35:41 10° SSE
Cosmos 1975 Rocket 3.5 17:26:40 10° NNW 17:31:01 67° W 17:35:18 10° S
OBJECT-B 1.5 17:29:09 10° SE 17:32:10 36° ENE 17:35:12 10° N
Cosmos 2082 3.8 17:27:08 10° SW 17:32:47 88° NW 17:38:30 10° NE
COSMO-SKYMED 1 3.1 17:29:21 10° NNE 17:33:41 66° WNW 17:38:00 10° SSW
Cosmos 1689 Rocket 4.0 17:34:07 10° N 17:36:55 35° WNW 17:39:41 10° SW
FREGAT/IRIS 2.3 17:35:51 10° SSE 17:38:26 58° ENE 17:41:01 10° N
CZ-2C R/B 3.3 17:34:13 10° NNE 17:39:14 34° E 17:44:17 10° SSE
DMSP B5D1-3 4.5 17:35:59 10° NNE 17:41:05 70° ESE 17:46:11 10° S
ERS-1 Rocket 4.4 17:37:42 10° E 17:41:34 23° NE 17:45:26 10° N
CENTAUR R/B 3.3 17:34:53 10° WNW 17:42:22 76° SSW 17:50:56 10° SE
OPS 8737 4.0 17:39:31 10° WSW 17:42:32 82° NNW 17:45:24 10° ENE
Cosmos 1707 2.8 17:38:44 10° NNW 17:42:37 80° WSW 17:46:28 10° S
H-2A R/B 2.7 17:39:02 10° S 17:43:57 57° WSW 17:49:02 10° NNW
ARGOS 3.5 17:38:54 10° S 17:44:16 70° WSW 17:49:41 10° NNW
Lacrosse 4 Rocket 2.3 17:41:55 10° NW 17:45:46 39° NNE 17:49:36 10° E
Resurs 01 Rocket 2.2 17:42:09 10° SE 17:46:21 42° ENE 17:50:35 10° N
Cosmos 909 Rocket 4.5 17:39:29 10° WNW 17:46:54 67° NNE 17:53:07 11° E
Cosmos 1048 Rocket 4.1 17:41:50 10° NW 17:47:08 85° WSW 17:52:29 10° SSE
KORONAS-FOTON 4.1 17:43:53 10° N 17:47:44 49° ENE 17:51:34 10° SE
ATLAS 3B R/B 2.8 17:42:11 10° WNW 17:48:56 82° NNE 17:55:34 12° ESE
MOS 1 4.4 17:44:10 10° SSE 17:49:54 88° ENE 17:55:40 10° NNW
USA 238 DEB 4.3 17:43:06 10° WNW 17:50:02 60° SW 17:57:17 10° SE
USA 238 4.3 17:43:13 10° WNW 17:50:08 60° SW 17:57:23 10° SE
Cosmos 1743 3.9 17:47:20 10° SW 17:51:03 47° WNW 17:54:48 10° N
Iridium 4 Rocket 4.0 17:46:43 10° SSW 17:51:49 68° W 17:57:25 10° N
SJ-6B 2.7 17:48:22 10° SSE 17:52:07 88° ENE 17:55:56 10° NNW
Sich 1 Rocket 3.7 17:48:41 10° S 17:53:07 60° E 17:57:38 10° NNE
Cosmos 1269 Rocket 4.2 17:50:52 10° NNW 17:56:10 61° NE 18:01:04 12° SE
NOSS 3-1 (C) 3.6 17:50:31 10° WSW 17:56:31 89° SSE 18:03:47 10° ENE
ATLAS CENTAUR R/B 1.2 17:52:51 10° WSW 17:56:42 80° NNW 18:00:25 10° ENE
SPOT 1/Viking Rocket 4.4 17:53:08 12° ESE 17:57:23 34° NE 18:02:00 10° N
Cosmos 2263 Rocket 2.2 17:54:38 10° SSW 18:00:05 58° ESE 18:05:37 10° NE
Cosmos 1513 Rocket 4.5 17:55:42 10° S 18:01:51 63° E 18:07:56 10° NNE
Meteor 2-9 Rocket 4.3 17:57:10 10° SSW 18:03:01 89° W 18:08:50 10° NNE
ARIANE 5 R/B 3.2 18:00:10 13° SE 18:03:40 39° ENE 18:07:43 10° N
IGS 5A 4.3 18:00:40 14° ESE 18:03:42 33° ENE 18:07:26 10° N
SL-08 RB Rocket 4.2 17:59:23 10° S 18:03:56 62° WSW 18:08:28 10° NNW
MetOp-B 4.5 17:59:48 11° SE 18:04:44 49° ENE 18:09:54 10° NNW
NOSS 2-3 (E) 4.0 18:01:08 10° WSW 18:05:50 80° SSE 18:11:51 10° ENE
Cosmos 1844 Rocket 3.7 18:03:31 10° SSE 18:07:52 24° ESE 18:12:14 10° NE
Cosmos 1092 Rocket 4.0 18:02:22 10° NNW 18:08:32 68° ENE 18:14:41 10° SSE
SJ 16-02 1.8 18:04:13 10° SW 18:08:35 67° NW 18:12:59 10° NNE
Cosmos 990 Rocket 3.9 18:03:50 10° SSW 18:08:59 84° ESE 18:14:11 10° NE
Cosmos 2227 4.2 18:04:00 10° SSW 18:09:41 68° SE 18:15:22 10° NE
Cosmos 1464 Rocket 3.9 18:03:49 10° S 18:09:54 68° E 18:16:04 10° NNE
Cosmos 2084 3.6 18:06:19 10° W 18:10:46 80° N 18:15:16 10° ENE
Spot 2 Rocket 4.0 18:07:56 14° ESE 18:11:52 42° ENE 18:16:38 10° NNW
Okean 2 Rocket 3.1 18:08:55 10° S 18:13:21 62° E 18:17:48 10° NNE
MONITOR-E 2.8 18:12:57 26° SSE 18:13:51 75° ENE 18:15:48 10° NNW
Cosmos 2026 Rocket 4.1 18:09:46 10° NNW 18:16:05 63° ENE 18:22:22 10° SSE
Lacrosse 5 rocket 2.0 18:12:23 10° WSW 18:16:30 43° SSE 18:19:36 17° E
Meteor 2-13 Rocket 4.4 18:11:40 10° NNW 18:17:53 78° ENE 18:24:04 10° SSE
Okean 1 Rocket 3.9 18:14:13 11° SSE 18:18:02 32° E 18:22:02 10° NNE
Ariane Rocket 3.6 18:13:39 10° S 18:18:39 57° WSW 18:23:41 10° NNW
USA 116 4.3 18:15:37 10° N 18:18:46 51° WNW 18:22:10 10° SW
Meteor 1-12 Rocket 4.3 18:13:26 10° S 18:19:16 68° E 18:25:02 10° NNE
Cosmos 1340 Rocket 4.4 18:19:45 16° E 18:20:05 17° E 18:22:39 10° NE
Cosmos 494 Rocket 4.2 18:15:07 10° NW 18:20:23 74° WSW 18:25:34 10° SSE
Cosmos 1833 Rocket 2.9 18:16:12 10° NW 18:21:51 64° NE 18:26:05 18° ESE
CZ-2C R/B 4.4 18:19:57 10° NNE 18:23:58 32° E 18:27:16 14° SSE
NOSS 2-2 (C) 4.2 18:21:25 10° S 18:24:28 25° SE 18:28:01 10° ENE
Resurs 1-3 3.7 18:21:06 10° SSE 18:25:31 82° WSW 18:29:58 10° NNW
Cosmos 2227 Rocket 3.3 18:20:48 10° WSW 18:26:14 45° NNW 18:31:42 10° NE
Cosmos 1300 Rocket 3.5 18:22:14 10° S 18:26:39 76° E 18:31:07 10° NNE
Cosmos 1461 3.7 18:22:05 10° WNW 18:26:45 56° N 18:30:43 14° E
Cosmos 2298 Rocket 4.4 18:22:38 10° S 18:27:36 41° ESE 18:32:35 10° NE
SPOT 3 Rocket 3.6 18:23:34 10° SSE 18:28:44 84° WSW 18:33:56 10° NNW
Cosmos 2251 Rocket 4.1 18:23:32 10° NNW 18:28:45 46° NE 18:32:20 19° ESE
NOSS 2-3 (D) 4.0 18:27:18 10° WSW 18:32:04 90° SE 18:38:13 10° ENE
USA 245 3.1 18:33:53 31° E 18:34:21 34° ENE 18:36:36 10° N
Cosmos 1536 Rocket 4.3 18:30:42 10° NNW 18:35:01 53° W 18:39:22 10° S
Cosmos 1898 Rocket 3.7 18:30:58 10° SW 18:36:10 77° NW 18:41:24 10° NNE
USA 234 4.2 18:32:20 10° E 18:37:30 24° SE 18:42:39 10° S
Cosmos 1891 Rocket 4.5 18:31:34 10° SSW 18:37:41 85° WNW 18:43:47 10° NNE
Cosmos 1892 Rocket 3.7 18:36:07 10° N 18:40:26 56° ENE 18:42:56 23° SE
Cosmos 1626 2.0 18:37:21 10° NNW 18:41:05 74° ENE 18:43:18 23° SSE
DMSP B5D2-2 4.0 18:37:11 10° NNE 18:42:30 71° ESE 18:47:48 10° S
Terra 2.8 18:40:19 21° E 18:42:42 32° NE 18:46:56 10° N
Meteor 2-5 Rocket 3.8 18:37:04 10° NNW 18:42:42 85° WSW 18:48:06 12° SSE
USA 229 DEB 3.8 18:47:24 10° W 18:54:12 80° NNW 19:01:31 10° ENE
CARTOSAT-1 4.0 18:52:23 28° ESE 18:54:16 46° ENE 18:58:25 10° N
USA 229 3.8 18:47:30 10° W 18:54:18 80° NNW 19:01:36 10° ENE
Cosmos 2151 Rocket 3.6 18:50:05 10° SSW 18:54:35 85° WNW 18:59:08 10° NNE
Cosmos 372 Rocket 3.9 18:50:00 10° SSW 18:55:14 74° ESE 19:00:28 10° NE
Cosmos 2150 Rocket 4.1 18:52:23 10° SSW 18:57:40 58° ESE 19:03:03 10° NE
NOSS 2-3 (C) 4.2 18:53:52 10° WSW 18:58:46 80° NNW 19:05:07 10° ENE
MOS 1 Rocket 4.3 18:55:07 10° N 18:59:35 46° WNW 19:03:49 10° SW
Cosmos 2082 Rocket 2.3 18:55:58 10° NW 19:01:37 70° NE 19:04:43 27° ESE
Cosmos 1805 3.2 19:00:43 19° S 19:03:24 67° E 19:07:19 10° NNE
SPOT 5 3.3 19:00:55 27° SE 19:03:34 54° ENE 19:08:47 10° NNW
OBJECT-B 2.6 19:01:41 10° SSW 19:04:35 29° W 19:07:31 10° NNW
Cosmos 1674 4.1 19:02:15 10° NNW 19:05:50 37° W 19:09:24 10° SSW
Cosmos 1937 Rocket 3.9 19:00:41 10° SW 19:05:55 65° NW 19:11:07 10° NNE
NOSS 3-1 (A) 3.7 19:00:05 10° WSW 19:06:14 81° NNW 19:13:41 10° ENE
Cosmos 2034 Rocket 4.2 19:00:32 10° SSW 19:06:56 80° WNW 19:13:19 10° NNE
Okean 1-7 Rocket 3.6 19:02:29 10° NNW 19:07:05 72° ENE 19:09:15 31° SSE
Cosmos 1125 Rocket 3.7 19:03:30 10° S 19:08:38 51° ESE 19:13:48 10° NE
COSMOS 2406 3.3 19:03:17 10° NW 19:08:57 71° SW 19:12:17 25° SSE
Exosat Rocket 3.7 19:04:55 10° S 19:09:51 45° ESE 19:14:42 10° NE
Meteor 1-24 Rocket 3.8 19:04:26 10° NNW 19:09:51 72° WSW 19:14:11 17° S
NOSS 8 (A) 4.5 19:09:41 10° WNW 19:12:58 80° SSW 19:14:06 44° SE
Cosmos 2297 Rocket 3.8 19:08:45 10° W 19:13:56 35° NNW 19:19:08 10° NE
SL-14 R/B 3.5 19:10:12 10° NNW 19:14:05 65° W 19:16:09 26° S
CRYOSAT 2 4.3 19:10:00 10° N 19:14:55 70° E 19:17:48 25° S
NOSS 8 (H) 4.1 19:14:28 10° SW 19:17:28 65° SSE 19:17:32 65° SE
NOSS 8 (E) 4.0 19:14:31 10° WSW 19:17:32 82° SSE 19:18:18 49° ENE
Cosmos 2266 Rocket 4.0 19:12:03 10° NNW 19:18:04 60° ENE 19:21:01 30° SE
Cosmos 614 Rocket 4.4 19:13:15 10° NNW 19:18:21 50° NE 19:20:34 30° ESE
Cosmos 1726 4.0 19:20:00 17° ENE 19:20:00 17° ENE 19:21:35 10° NE
Cosmos 1733 3.1 19:17:21 34° S 19:18:53 70° ESE 19:22:44 10° NNE
Cosmos 2098 Rocket 4.3 19:11:58 10° NNW 19:19:27 73° ENE 19:23:23 27° SSE
ERS-1 Rocket 3.0 19:17:24 32° SE 19:19:42 71° ENE 19:24:45 10° NNW
CZ-2C R/B 3.1 19:14:28 10° NNE 19:19:55 68° WNW 19:25:27 10° SSW
NOSS 2-2 (E) 3.4 19:17:45 10° SW 19:21:26 58° SE 19:26:05 10° ENE
Cosmos 1602 Rocket 4.0 19:17:57 10° N 19:22:11 45° ENE 19:23:14 38° ESE
Resurs 01 Rocket 2.7 19:19:16 14° SSW 19:22:54 43° W 19:27:11 10° NNW
Cosmos 2292 Rocket 2.9 19:20:46 10° N 19:23:47 54° ENE 19:23:47 54° ENE
Cosmos 1655 Rocket 4.0 19:17:49 10° NNW 19:24:06 76° ENE 19:27:33 29° SSE
Meteor 1-21 Rocket 4.3 19:18:28 10° NNW 19:24:09 65° ENE 19:26:43 33° SE
Cosmos 1703 4.2 19:21:01 10° N 19:24:34 32° ENE 19:24:59 31° ENE
Lacrosse 4 Rocket 1.2 19:20:44 10° NW 19:24:49 87° SW 19:25:54 48° SE
Cosmos 1953 4.0 19:28:08 20° ENE 19:28:08 20° ENE 19:30:20 10° NE
ATLAS 2AS CENTAUR R/B 3.6 19:24:48 26° SSE 19:27:19 31° ESE 19:33:55 10° ENE
Landsat 7 4.1 19:25:47 25° S 19:28:29 67° WSW 19:33:17 10° NNW
NOSS 2-2 (D) 3.3 19:26:15 10° SW 19:29:53 56° SE 19:32:27 23° ENE
OPS 8737 4.3 19:28:51 10° WNW 19:31:41 59° N 19:31:51 57° NNE
CENTAUR R/B 4.1 19:25:33 10° WNW 19:32:35 38° SW 19:38:33 17° S
Cosmos 1766 3.3 19:33:40 25° SSW 19:35:52 78° WNW 19:39:51 10° NNE
ATLAS CENTAUR R/B 1.8 19:32:12 10° W 19:35:53 50° N 19:37:32 28° ENE
Cosmos 1626 Rocket 3.5 19:32:06 10° NNW 19:36:31 70° ENE 19:37:37 49° SE
SPOT 1/Viking Rocket 3.7 19:33:46 28° S 19:36:33 71° WSW 19:41:44 10° NNW
Cosmos 1470 3.1 19:38:04 46° E 19:38:04 46° E 19:41:36 10° NNE
IGS 5A 4.1 19:37:08 28° SSW 19:39:03 51° W 19:43:08 10° NNW
Cosmos 1844 3.6 19:33:32 10° SSW 19:39:07 61° ESE 19:44:41 10° NE
ATLAS 3B R/B 3.0 19:32:57 10° WNW 19:39:32 56° SW 19:42:49 31° SSE
Cosmos 2278 Rocket 3.4 19:40:44 24° E 19:40:44 24° E 19:44:11 10° NE
ARIANE 5 R/B 3.4 19:37:43 23° SSW 19:40:08 46° W 19:44:20 10° NNW
Cosmos 1634 Rocket 3.9 19:34:23 11° SSW 19:40:28 90° WNW 19:46:44 10° NNE
Cosmos 1758 3.8 19:42:09 42° E 19:42:09 42° E 19:45:38 10° NNE
Cosmos 2263 Rocket 3.0 19:38:43 10° WSW 19:44:12 53° NW 19:49:44 10° NE
Cosmos 2285 Rocket 3.9 19:39:11 10° SSW 19:45:28 74° ESE 19:51:51 10° NE
Cosmos 1455 Rocket 3.1 19:45:54 54° SE 19:46:27 59° E 19:50:47 10° NNE
Cosmos 909 Rocket 4.2 19:40:29 10° NW 19:47:21 65° SW 19:50:00 36° SSE
NOSS 3-1 (C) 3.8 19:41:22 10° W 19:47:45 76° N 19:54:08 16° E
SJ 16-02 3.9 19:44:27 10° W 19:47:58 23° NNW 19:51:30 10° NNE
Meteor 2-10 4.5 19:48:53 41° ESE 19:49:48 45° E 19:54:56 10° NNE
Cosmos 1328 4.3 19:46:06 10° N 19:49:58 44° ENE 19:50:06 43° ENE
Cosmos 2084 3.5 19:46:03 10° WNW 19:50:32 79° N 19:51:49 46° E
Spot 2 Rocket 4.1 19:48:07 25° SSW 19:50:50 52° W 19:55:48 10° NNW
Cosmos 1844 Rocket 2.5 19:45:28 10° SSW 19:51:03 79° SE 19:56:42 10° NE
Uosat 12 SS-18 rocket 4.1 19:49:57 10° WNW 19:54:17 78° NNE 19:55:21 51° E
Lacrosse 5 rocket 1.8 19:51:03 10° W 19:55:13 47° SSW 19:55:13 47° SSW
Okean 1 Rocket 3.8 19:51:22 10° SSW 19:55:47 53° WNW 20:00:14 10° N
Cosmos 1340 Rocket 2.7 19:55:19 62° SSW 19:55:58 89° ESE 20:00:01 10° NNE
USA 290 3.1 19:53:39 10° NNW 19:56:23 42° NNE 19:56:23 42° NNE
NOSS 2-3 (E) 4.4 19:51:41 10° W 19:56:48 73° N 20:02:14 16° E
CZ-2C R/B 4.3 19:57:00 10° NNE 20:01:22 56° WNW 20:05:30 11° SW
Cosmos 1833 Rocket 3.4 20:00:20 10° NW 20:05:42 45° WSW 20:07:47 32° SSW
Cosmos 1461 3.1 20:01:26 10° WNW 20:06:13 89° SSW 20:07:05 61° ESE
Cosmos 407 Rocket 3.5 20:03:38 10° NNW 20:08:47 71° NE 20:09:56 52° ESE
Cosmos 2180 Rocket 4.4 20:05:57 33° S 20:08:57 80° ESE 20:15:21 10° NNE
Cosmos 2251 Rocket 3.9 20:05:59 10° NW 20:11:17 59° WSW 20:12:49 42° S
Cosmos 2227 Rocket 3.9 20:06:31 10° WNW 20:11:32 32° N 20:16:35 10° ENE
H-2A R/B 3.5 20:08:19 10° NNE 20:12:34 81° WNW 20:13:28 55° SW
Cosmos 676 Rocket 4.5 20:08:17 10° NNW 20:13:26 51° NE 20:14:50 40° E
NOSS 2-2 (C) 3.3 20:10:37 10° WSW 20:14:26 84° SSE 20:19:18 10° ENE
Cosmos 1954 Rocket 4.5 20:10:51 10° NNW 20:15:58 52° NE 20:17:17 41° E
Terra 2.0 20:19:13 51° SSW 20:20:14 66° WSW 20:25:01 10° NNW
Cosmos 1758 Rocket 3.5 20:16:05 10° NNW 20:20:36 76° ENE 20:20:51 73° ESE
Cosmos 1140 Rocket 3.5 20:15:34 10° NNW 20:20:45 71° NE 20:21:42 56° ESE
Cosmos 1825 Rocket 3.6 20:17:06 10° N 20:21:29 64° ENE 20:21:36 64° E
USA 234 3.4 20:15:25 10° E 20:21:42 47° SSE 20:27:59 10° SW
NOSS 2-3 (D) 4.4 20:17:57 10° W 20:23:08 74° N 20:27:45 21° E
Cosmos 2279 Rocket 4.1 20:20:51 24° SSW 20:24:51 75° WNW 20:31:10 10° NNE
Spot 4 4.0 20:28:13 54° E 20:28:47 58° ENE 20:33:34 10° NNW
Meteor 1-16 Rocket 4.4 20:31:08 52° SE 20:31:55 56° E 20:37:43 10° NNE
SL-24 DEB 4.1 20:27:46 10° N 20:32:25 89° WNW 20:32:49 75° S
ALOS 2 3.4 20:33:26 38° ENE 20:33:36 38° ENE 20:37:42 10° N
Meteor 2-21 Rocket 4.4 20:28:22 10° NNW 20:34:36 89° W 20:36:18 52° SSE
Cosmos 1544 Rocket 3.5 20:38:54 72° WSW 20:39:10 75° WNW 20:43:32 10° NNE
SPOT 5 4.0 20:40:09 32° SW 20:41:50 41° W 20:46:54 10° NNW
Cosmos 2082 Rocket 2.9 20:40:18 10° NW 20:45:30 40° WSW 20:46:33 36° SW
USA 229 DEB 3.8 20:38:39 10° WNW 20:45:37 80° NNE 20:49:59 27° E
USA 229 3.8 20:38:45 10° WNW 20:45:42 80° NNE 20:50:05 27° E
Cosmos 1190 Rocket 3.8 20:42:58 10° NW 20:48:17 84° WSW 20:48:49 72° SSE
Cosmos 1340 4.2 20:46:07 10° N 20:48:55 28° NE 20:48:55 28° NE
NOSS 2-3 (C) 4.4 20:44:33 10° WNW 20:49:54 77° NNE 20:53:36 28° E
Cosmos 1125 Rocket 4.3 20:45:38 10° WSW 20:50:50 51° NW 20:56:03 10° NNE
COSMOS 2455 4.0 20:52:44 27° E 20:52:44 27° E 20:56:12 10° ENE
Aureole 1 Rocket 3.5 20:45:02 10° NW 20:51:23 74° NE 20:52:04 64° ESE
Cosmos 1943 Rocket 4.1 20:54:15 15° ENE 20:54:15 15° ENE 20:56:07 10° ENE
Cosmos 1726 3.0 20:54:28 49° NNW 20:54:28 49° NNW 20:57:23 10° N
NOSS 3-4 (A) 3.4 20:54:06 57° SE 20:54:06 57° SE 21:00:30 10° ENE
NOSS 3-4 (C) 3.5 20:54:16 56° SE 20:54:16 56° SE 21:00:36 10° ENE
Cosmos 1953 Rocket 3.6 20:52:10 10° NNW 20:56:13 75° N 20:56:13 75° N
NOSS 3-1 (A) 3.8 20:51:04 10° WNW 20:57:38 80° NNE 21:02:58 22° E
ERS-1 Rocket 4.4 20:57:24 25° WSW 20:58:58 29° W 21:03:23 10° NNW
Cosmos 2297 Rocket 3.7 20:54:14 10° NW 20:59:23 34° NNE 21:04:32 10° ENE
Cosmos 614 Rocket 4.4 20:55:04 10° NW 21:00:04 50° WSW 21:00:25 49° SW
Cosmos 1703 4.2 20:57:03 10° NNW 21:00:19 41° WNW 21:00:19 41° WNW
Lacrosse 4 Rocket 3.3 20:59:51 10° WNW 21:02:11 21° W 21:02:11 21° W
Cosmos 1953 2.8 21:03:49 59° NNW 21:03:49 59° NNW 21:07:18 10° NNE
Cosmos 1356 Rocket 4.4 21:06:03 38° NE 21:06:03 38° NE 21:08:45 10° NNE
SL-08 ROCKET BODY 4.2 20:59:33 10° NNW 21:05:27 77° ENE 21:06:17 65° SE
Cosmos 1346 Rocket 4.3 21:05:15 10° N 21:08:21 28° NE 21:08:21 28° NE
SL-08 R/B 4.4 21:03:16 10° NNW 21:09:40 88° WSW 21:10:55 61° S
Cosmos 1892 3.9 21:06:39 10° N 21:09:21 37° NNE 21:09:21 37° NNE
Exosat Rocket 4.4 21:06:26 10° WSW 21:11:20 49° NW 21:16:28 10° NE
NOSS 2-2 (E) 3.8 21:07:56 10° W 21:12:00 72° N 21:17:25 10° ENE
SL-27 R/B 3.9 21:08:36 10° NNW 21:11:01 38° N 21:11:01 38° N
SME Rocket 3.8 21:06:26 10° NNE 21:13:45 83° WNW 21:14:54 58° SW
Cosmos 1470 4.3 21:13:24 28° W 21:14:04 30° WNW 21:17:35 10° N
CZ-4C R/B 3.8 21:16:50 23° E 21:16:50 23° E 21:19:56 10° ENE
ATLAS CENTAUR R/B 2.5 21:11:23 10° WNW 21:13:40 35° NW 21:13:40 35° NW
Cosmos 2369 Rocket 4.1 21:17:31 16° E 21:17:31 16° E 21:19:46 10° ENE
Thor Agena Rocket 4.3 21:12:13 10° NNE 21:16:46 41° E 21:16:46 41° E
ATLAS 2AS CENTAUR R/B 2.9 21:11:59 22° SW 21:17:25 69° SE 21:25:06 10° ENE
Cosmos 1741 Rocket 4.3 21:13:06 10° NNW 21:18:25 61° NE 21:19:07 55° E
In-Cosmos 22 Rocket 4.0 21:13:53 10° NNW 21:19:31 79° ENE 21:19:56 73° ESE
NOSS 2-2 (D) 3.9 21:16:26 10° W 21:22:04 40° ENE 21:25:43 10° ENE
Cosmos 2278 Rocket 2.0 21:22:33 75° SSW 21:23:03 84° SE 21:28:45 10° NE
Cosmos 1844 4.4 21:17:55 10° WSW 21:23:29 52° NNW 21:28:59 10° NE
Cosmos 1908 4.3 21:26:37 43° N 21:26:37 43° N 21:29:19 10° NNE
Cosmos 2151 4.4 21:22:41 10° N 21:26:24 30° NE 21:26:24 30° NE
RESURS DK-1 4.2 21:30:24 23° NE 21:30:24 23° NE 21:32:04 10° NE
SJ 16-02 4.5 21:25:42 10° NW 21:28:08 14° N 21:30:34 10° NNE
ATLAS 3B R/B 4.2 21:24:10 10° WNW 21:29:03 21° WSW 21:30:03 21° SW
Cosmos 2263 Rocket 3.9 21:24:11 10° WNW 21:29:14 32° N 21:34:18 10° NE
Cosmos 1408 4.2 21:27:02 10° N 21:29:17 32° NNE 21:29:17 32° NNE
Lacrosse 5 rocket 3.9 21:30:03 10° W 21:30:50 14° W 21:30:50 14° W
Meteor 2-8 Rocket 4.3 21:33:40 67° SE 21:34:11 71° E 21:40:14 10° NNE
Cosmos 1844 Rocket 3.7 21:30:04 10° W 21:35:25 44° NNW 21:40:49 10° NE
NOSS 3-1 (C) 3.7 21:32:12 10° WNW 21:39:00 82° SSW 21:41:28 48° SE
Cosmos 2058 Rocket 3.9 21:43:01 44° NE 21:43:01 44° NE 21:46:15 10° NNE
Cosmos 2056 Rocket 4.5 21:43:24 36° E 21:43:24 36° E 21:47:16 10° NE
Cosmos 1825 3.6 21:40:24 10° N 21:42:57 35° NNE 21:42:57 35° NNE
Cosmos 1553 Rocket 3.9 21:45:43 68° SSE 21:46:35 81° E 21:53:03 10° NNE
NOSS 2-3 (E) 4.4 21:42:18 10° WNW 21:47:55 87° SSW 21:49:36 54° ESE
Cosmos 1300 4.1 21:50:32 36° NNE 21:50:32 36° NNE 21:52:52 10° NNE
Cosmos 1386 Rocket 4.4 21:46:34 10° NNW 21:52:41 70° W 21:53:28 63° SW
Cosmos 1076 Rocket 4.1 21:48:33 10° NNW 21:52:08 56° N 21:52:08 56° N
Cosmos 1833 4.1 21:48:14 10° NW 21:54:00 78° SW 21:54:07 78° SW
Cosmos 1745 Rocket 4.0 21:49:58 10° NNW 21:56:04 64° W 21:56:46 59° SW
Cosmos 1375 Rocket 4.4 21:50:18 10° WNW 21:56:55 81° SW 21:57:49 67° SSE
Cosmos 2227 Rocket 3.4 21:51:36 10° NW 21:56:57 40° NNE 22:01:46 12° E
Terra 4.0 21:58:06 15° W 21:58:55 16° W 22:01:49 10° NW
Cosmos 1850 Rocket 3.9 21:53:58 10° NW 21:58:55 79° WNW 21:58:55 79° WNW
Timation 2 Rocket 4.3 21:55:17 10° NW 22:01:20 60° NNE 22:04:09 33° E
Cosmos 2228 3.7 22:02:04 53° NNW 22:02:04 53° NNW 22:05:38 10° N
Cosmos 2058 3.7 21:58:40 10° NNW 22:01:51 49° NNW 22:01:51 49° NNW
NOSS 2-2 (C) 4.1 22:01:05 10° W 22:05:48 62° NE 22:10:48 10° E
USA 234 3.5 21:58:56 10° E 22:06:55 50° SW 22:11:56 10° WSW
Meteor 2-3 Rocket 4.3 22:00:05 10° NNW 22:05:30 47° ENE 22:06:33 42° E
Helios 1A 3.7 22:07:41 53° N 22:07:41 53° N 22:10:57 10° NNW
ALOS 2 3.6 22:10:50 41° WNW 22:10:50 41° WNW 22:14:13 10° NNW
Cosmos 2219 4.1 22:05:14 10° NW 22:10:44 47° NNE 22:14:03 23° E
NOSS 2-3 (D) 4.4 22:08:31 10° WNW 22:14:11 78° SSW 22:15:07 66° SSE
Cosmos 1624 Rocket 4.3 22:16:11 56° E 22:16:11 56° E 22:20:40 10° NE
Cosmos 1633 4.5 22:18:18 10° N 22:20:42 27° NE 22:20:42 27° NE
Meteor 2-15 4.3 22:22:36 73° SSW 22:23:15 88° WNW 22:29:27 10° NNE
Cosmos 2074 Rocket 4.1 22:18:53 10° NNW 22:25:12 69° ENE 22:26:18 58° SE
Cosmos 1340 4.5 22:21:38 10° NNW 22:23:39 28° NW 22:23:39 28° NW
Cosmos 968 Rocket 4.3 22:21:33 10° NNW 22:26:39 47° NE 22:28:22 35° E
SL-16 R/B 3.3 22:27:14 28° ESE 22:30:00 46° NE 22:35:51 10° NNW
Cosmos 1709 Rocket 4.0 22:24:58 10° NNW 22:31:01 62° W 22:31:31 60° WSW
Cosmos 1943 Rocket 2.4 22:35:46 58° E 22:35:46 58° E 22:40:50 10° NE
COSMOS 2455 2.7 22:35:51 76° SSW 22:36:21 86° SE 22:42:27 10° NE
USA 229 DEB 3.7 22:29:39 10° WNW 22:36:38 64° SW 22:37:22 61° S
USA 229 3.7 22:29:45 10° WNW 22:36:44 65° SW 22:37:28 61° S
CZ-2D R/B 4.2 22:34:47 10° NE 22:38:01 16° E 22:39:26 14° E
Cosmos 1315 Rocket 4.4 22:40:25 29° NE 22:40:25 29° NE 22:42:49 10° NNE
S3M 4.0 22:38:35 61° WSW 22:39:29 70° WNW 22:45:39 10° NNE
NOSS 2-3 (C) 4.5 22:35:04 10° WNW 22:40:51 66° SW 22:40:57 66° SSW
Meteor 2-10 Rocket 3.7 22:43:49 74° SE 22:44:06 76° ESE 22:49:52 10° NNE
Cosmos 2297 Rocket 2.7 22:38:50 10° NW 22:44:28 58° NE 22:47:05 31° ESE
NOSS 3-4 (A) 3.5 22:41:29 30° W 22:44:48 81° NNW 22:51:45 10° ENE
Nimbus 7 Rocket 4.3 22:38:47 10° NNE 22:44:50 84° WNW 22:45:36 69° SW
NOSS 3-4 (C) 3.5 22:41:39 31° W 22:44:55 82° NNW 22:51:51 10° ENE
Cosmos 1346 Rocket 4.3 22:41:30 10° NNW 22:43:50 32° NW 22:43:50 32° NW
APEX 4.4 22:47:42 42° NNE 22:47:42 42° NNE 22:51:03 10° NE
NOSS 3-1 (A) 3.8 22:41:51 10° WNW 22:48:43 67° SW 22:50:19 55° SSE
Resurs 1-4 Rocket 3.9 22:48:47 10° NE 22:52:34 20° E 22:53:50 18° ESE
Okean 3 Rocket 4.0 22:48:45 10° NNW 22:52:35 62° N 22:52:35 62° N
Cosmos 2297 3.6 22:53:56 72° WSW 22:54:29 80° NW 23:00:12 10° NE
Cosmos 1441 Rocket 4.4 22:52:09 10° NNW 22:55:15 43° NNE 22:55:15 43° NNE
Thor Agena Rocket 4.0 22:51:36 10° NNE 22:56:46 54° WNW 22:57:20 51° W
CZ-4 R/B 4.4 22:52:54 10° NNE 22:57:24 48° E 22:57:24 48° E
Cosmos 1400 Rocket 3.7 22:59:55 47° N 22:59:55 47° N 23:02:59 10° NNE
Cosmos 2369 Rocket 2.3 22:59:19 61° ESE 22:59:19 61° ESE 23:04:46 10° NE
Cosmos 304 Rocket 4.3 22:59:55 50° E 22:59:55 50° E 23:03:53 10° NE
Cosmos 2315 Rocket 3.9 22:58:39 68° SSW 22:59:32 85° WNW 23:05:53 10° NNE
Cosmos 1455 3.5 23:01:58 38° N 23:01:58 38° N 23:04:25 10° NNE
MOZ.5/SAFIR/RUBIN 5/SL-8 4.0 23:02:09 62° ENE 23:02:09 62° ENE 23:06:45 10° NNW
CZ-4C R/B 2.2 23:02:00 75° S 23:02:16 76° SSE 23:09:02 10° ENE
NOSS 2-2 (E) 3.9 22:58:23 10° WNW 23:02:55 83° NNE 23:09:10 10° ESE
Cosmos 2151 4.0 22:59:53 10° NNW 23:02:58 41° NW 23:02:58 41° NW
Cosmos 2184 Rocket 3.8 22:58:58 10° NNW 23:05:09 79° W 23:05:50 70° SSW
RESURS DK-1 3.3 23:06:17 44° NNW 23:06:17 44° NNW 23:10:12 10° NE
Cosmos 2278 Rocket 3.2 23:04:22 22° W 23:07:40 43° NNW 23:13:04 10° NE
Cosmos 1408 Rocket 4.0 23:03:58 10° NNW 23:07:40 60° NNE 23:07:40 60° NNE
SJ 16-02 4.2 23:05:26 10° NNW 23:08:27 18° NNE 23:11:28 10° ENE
ATLAS 2AS CENTAUR R/B 3.0 23:00:35 10° W 23:08:36 79° NNW 23:16:12 10° ENE
Cosmos 1371 Rocket 4.2 23:08:46 63° W 23:09:16 67° NW 23:14:39 10° NNE
Cosmos 1486 Rocket 4.1 23:04:03 10° NNW 23:09:23 76° NE 23:09:57 68° ESE
Meteor 2-17 Rocket 4.4 23:03:34 10° NNW 23:09:39 66° W 23:10:08 63° WSW
Cosmos 1503 Rocket 4.5 23:06:04 10° NNW 23:11:13 57° NE 23:12:56 39° ESE
NOSS 2-2 (D) 3.9 23:06:54 10° WNW 23:11:21 82° NNE 23:17:26 10° ESE
Cosmos 2263 Rocket 3.7 23:09:21 10° NW 23:14:33 36° NNE 23:19:45 10° E
Cosmos-2242 3.4 23:19:34 60° NE 23:19:34 60° NE 23:23:10 10° NNE
Cosmos 1825 4.3 23:16:12 10° NNW 23:17:44 19° NW 23:17:44 19° NW
Helios 1B rocket 3.3 23:15:26 10° NNE 23:18:47 43° ENE 23:18:47 43° ENE
Cosmos 2058 Rocket 4.4 23:20:17 30° WNW 23:20:17 30° WNW 23:24:09 10° N
Cosmos 1844 Rocket 4.4 23:15:35 10° WNW 23:20:35 31° N 23:25:35 10° ENE
Geosat 4.0 23:21:33 69° W 23:21:33 69° W 23:26:09 10° NW
DELTA 2 DEB (DPAF) 4.3 23:23:12 68° NE 23:23:12 68° NE 23:27:32 10° NNW
Cosmos 2056 Rocket 3.7 23:23:44 57° W 23:24:22 62° NW 23:29:37 10° NNE
SL-8 Rocket 4.4 23:18:41 10° NNW 23:24:56 58° ENE 23:27:37 34° SE
Cosmos 1610 Rocket 4.3 23:21:59 10° NNW 23:28:10 78° W 23:29:04 65° SSW
Cosmos 2221 3.8 23:29:15 31° E 23:29:18 31° E 23:33:07 10° NNE
NOSS 3-1 (C) 4.4 23:22:57 10° WNW 23:28:49 40° WSW 23:28:49 40° WSW
Cosmos 1766 Rocket 4.4 23:26:01 10° NNW 23:29:10 41° NW 23:29:10 41° NW
USA 81 3.9 23:27:07 10° N 23:32:28 89° W 23:32:46 80° S
COBE Rocket 4.3 23:31:37 52° ESE 23:32:36 64° ENE 23:37:42 10° NNW
Cosmos 1420 Rocket 4.0 23:35:15 69° W 23:35:43 75° NW 23:41:04 10° NNE
CZ-4C R/B 3.9 23:35:34 62° E 23:35:45 63° ENE 23:40:10 10° NNW
Cosmos 2218 Rocket 4.5 23:29:47 10° NNW 23:36:08 59° ENE 23:39:21 30° SE
Cosmos 1295 Rocket 4.4 23:30:53 10° NNW 23:37:15 82° W 23:38:29 60° S
Cosmos 1812 Rocket 4.2 23:39:01 48° NW 23:39:01 48° NW 23:43:07 10° N
Cosmos 2366 rocket 4.4 23:32:31 10° NNW 23:38:44 59° ENE 23:41:56 29° SE
Cosmos 371 Rocket 3.5 23:39:59 57° WNW 23:40:16 58° NW 23:45:03 10° NNE
Sich 1 4.1 23:36:57 10° N 23:41:01 40° ENE 23:41:59 35° E
Cosmos 2227 Rocket 2.1 23:35:56 10° NW 23:41:39 87° NE 23:43:29 45° SE
Cosmos 332 Rocket 3.9 23:43:13 67° WNW 23:43:25 68° NW 23:48:21 10° NNE
Cosmos 1842 Rocket 4.3 23:43:34 44° ESE 23:43:44 45° E 23:48:02 10° NNE
Cosmos 1452 Rocket 3.3 23:43:44 77° SW 23:44:07 86° NW 23:49:26 10° NE
Cosmos 1743 Rocket 3.7 23:41:35 10° NNW 23:45:32 72° N 23:45:32 72° N
Meteor 2-3 Rocket 4.0 23:43:28 10° NNW 23:48:48 49° W 23:48:48 49° W
Timation 2 Rocket 4.0 23:42:55 10° NW 23:48:55 57° WSW 23:49:04 57° SW
USA 234 3.2 23:42:41 10° ESE 23:49:04 55° SSW 23:55:30 10° W
Cosmos 1500 Rocket 3.6 23:44:58 10° NNW 23:49:12 78° N 23:49:12 78° N
Meteor 2-12 Rocket 4.3 23:45:36 10° NNW 23:51:43 86° ENE 23:53:28 50° SSE
UNK 3.6 23:53:26 79° WNW 23:53:26 79° WNW 23:57:52 10° NNW
ADEOS II 3.8 23:50:33 10° NNE 23:54:52 25° E 23:57:32 17° SE
Cosmos 1633 4.4 23:53:04 10° NNW 23:54:47 24° NW 23:54:47 24° NW
